カタログに戻る

FSKL5695-13

運用中アマチュア無線SSO
NORAD 64887·PAYLOAD·🇷🇺 Russia
この衛星名は、まだ公式ソースで確認されていません。

打ち上げ Jul 25, 2025 から Vostochny Cosmodrome

Loading…

次のパス (今後24時間)

TLE

最新Source: Space-Track

元期: Sep 14, 2026, 20:59 UTC

1 64887U 25155M   26257.87445185  .00035336  00000-0  80618-3 0  9991
2 64887  97.4595 229.9041 0006150 170.5846 189.5518 15.42796811 94693

AllMySatでFSKL5695-13をリアルタイム追跡

Download on the App Store